Location: Asheville, NC
(35.6000°N, 82.5500°W)
Time: 15:54:40
(UTC-05:00)

Vanguard 1 - Pass Details

Date: 16 December 2017
Orbit: 649 x 3834 km, 34.3° (Epoch: 19 January)

Event Time Altitude Azimuth Distance (km) Brightness Sun altitude
Rises 11:19:25 0° 266° (W) 7,886 14.6 29.0°
Reaches altitude 10° 11:25:09 10° 266° (W) 6,662 14.3 29.3°
Maximum altitude 11:45:39 86° 182° (S) 2,501 12.7 30.3°
Drops below altitude 10° 11:56:45 10° 95° (E) 3,900 13.4 30.7°
Sets 11:59:11 0° 95° (E) 4,585 13.6 30.7°
